Date,TemperatureHighF,TemperatureAvgF,TemperatureLowF,DewpointHighF,DewpointAvgF,DewpointLowF,HumidityHigh,HumidityAvg,HumidityLow,PressureMaxIn,PressureMinIn,WindSpeedMaxMPH,WindSpeedAvgMPH,GustSpeedMaxMPH,PrecipitationSumIn
2013-1-1,40.5,37.5,28.9,29.8,25.6,15.6,67,62,52,30.02,29.84,19,4,21,0.01
2013-1-2,31.8,28.9,25.0,21.0,16.5,12.4,69,59,53,30.19,30.01,17,4,17,0.00
2013-1-3,30.0,26.8,23.0,21.4,17.7,15.3,76,68,58,30.23,30.09,13,2,13,0.00
2013-1-4,38.8,33.3,28.9,25.7,22.8,18.3,74,65,53,30.11,29.96,15,2,16,0.00
2013-1-5,43.2,35.8,30.9,27.0,24.1,20.8,82,63,49,30.32,30.01,16,2,16,0.00
2013-1-6,44.6,37.8,33.4,36.3,31.7,25.9,92,79,65,30.27,30.01,13,1,14,0.00
2013-1-7,43.0,37.1,30.0,33.6,28.4,23.5,86,71,55,30.45,30.06,14,2,14,0.00
2013-1-8,48.6,41.1,33.3,38.7,34.2,27.5,90,77,57,30.48,30.39,15,2,18,0.00
2013-1-9,48.9,42.1,32.5,43.0,36.1,29.1,90,79,63,30.44,30.14,17,2,17,0.00
2013-1-10,46.9,42.7,36.9,35.1,28.9,24.8,77,58,45,30.59,30.22,17,3,19,0.00
2013-1-11,46.2,39.3,30.6,45.0,35.8,27.1,96,87,75,30.58,30.17,12,1,12,0.34
2013-1-12,48.2,43.4,41.0,46.9,42.6,40.3,98,97,95,30.21,30.09,13,3,13,0.10
2013-1-13,49.8,44.8,40.6,49.1,44.2,39.9,98,98,94,30.22,30.05,8,1,8,0.01
2013-1-14,56.3,48.9,38.1,55.8,44.8,29.8,99,87,52,30.31,29.99,18,2,18,0.05
2013-1-15,39.0,37.8,35.4,34.3,32.3,29.8,92,81,71,30.37,30.24,13,3,15,0.22
2013-1-16,39.2,36.9,35.1,38.3,35.5,31.6,97,94,82,30.27,29.81,13,3,14,0.81
2013-1-17,43.0,38.4,33.4,35.8,32.2,22.5,95,79,62,30.13,29.94,18,2,18,0.00
2013-1-18,34.2,27.5,22.3,25.0,13.4,5.2,82,56,39,30.55,30.05,22,5,22,0.00
2013-1-19,47.1,41.5,24.8,39.9,31.4,14.2,79,67,57,30.48,29.99,33,5,33,0.00
2013-1-20,54.9,45.8,33.3,40.1,30.4,15.1,79,57,28,30.04,29.71,21,5,22,0.00
2013-1-21,33.1,29.8,27.9,28.8,18.2,10.0,94,65,44,30.16,29.84,20,2,20,0.00
2013-1-22,27.9,22.3,16.0,26.1,9.0,-1.8,93,58,41,30.20,29.83,21,4,22,0.02
2013-1-23,19.9,16.4,11.7,3.2,0.5,-1.8,62,49,40,30.27,30.17,21,4,22,0.00
2013-1-24,22.3,18.0,10.8,8.1,3.4,-2.2,69,53,41,30.38,30.17,24,5,24,0.00
2013-1-25,24.6,20.3,13.5,20.1,9.9,3.2,90,64,51,30.43,30.09,18,2,18,0.00
2013-1-26,25.9,22.7,19.8,20.1,12.4,6.1,90,66,47,30.37,30.06,23,5,23,0.00
2013-1-27,32.0,25.8,21.4,15.3,11.0,6.4,68,54,34,30.54,30.37,18,3,18,0.00
2013-1-28,37.6,30.8,21.6,36.0,23.8,9.3,94,76,51,30.53,30.05,8,0,8,0.19
2013-1-29,41.0,36.2,33.3,39.7,34.4,32.2,96,93,86,30.23,30.03,7,1,9,0.00
2013-1-30,55.6,50.6,40.6,53.1,49.3,39.4,98,95,90,30.17,29.51,18,4,20,0.01
2013-1-31,56.7,46.8,31.3,55.6,33.5,12.4,97,63,35,29.78,29.14,31,7,31,0.55
2013-2-1,32.2,29.8,26.1,17.2,11.9,5.0,60,47,37,30.23,29.78,23,5,23,0.00
2013-2-2,31.1,26.9,20.3,23.2,14.2,8.1,88,59,42,30.35,30.12,18,3,20,0.00
2013-2-3,30.4,26.8,23.5,23.2,20.5,17.1,93,77,64,30.12,29.80,11,2,12,0.02
2013-2-4,32.2,27.9,23.7,22.1,14.1,9.0,80,57,40,30.03,29.82,19,4,20,0.00
2013-2-5,32.2,29.4,27.0,30.0,25.0,11.8,93,84,52,30.04,29.94,12,3,12,0.00
2013-2-6,39.7,33.6,28.2,30.2,24.1,6.3,93,70,34,30.39,29.95,18,3,21,0.06
2013-2-7,33.4,29.4,26.8,24.6,13.8,5.5,70,52,37,30.56,30.38,17,4,17,0.00
2013-2-8,37.6,34.3,28.8,33.8,31.1,23.4,96,89,69,30.42,29.53,35,11,38,1.79
2013-2-9,28.9,26.2,23.4,27.3,19.3,9.9,95,77,52,30.31,29.63,27,8,31,0.01
2013-2-10,33.3,25.9,21.0,20.1,13.5,9.0,83,60,38,30.51,30.31,17,2,19,0.20
2013-2-11,47.5,40.3,25.5,46.8,38.7,20.3,98,94,80,30.40,29.70,16,2,16,1.03
2013-2-12,45.9,40.7,32.9,41.9,31.2,25.2,98,70,50,29.99,29.72,25,4,25,0.01
2013-2-13,42.3,35.4,29.5,30.9,26.9,24.3,91,71,52,29.98,29.71,12,1,12,0.00
2013-2-14,42.3,36.0,31.8,34.9,30.3,24.6,95,81,50,30.06,29.74,11,2,11,0.07
2013-2-15,47.5,41.4,36.1,40.8,38.4,34.5,97,89,75,30.09,29.97,14,2,16,0.00
2013-2-16,40.8,35.6,30.6,39.6,31.4,25.3,95,85,66,29.98,29.71,19,5,19,0.01
2013-2-17,31.3,26.9,19.2,27.9,12.6,4.1,92,57,34,29.91,29.58,28,8,33,0.00
2013-2-18,32.4,25.6,19.2,14.2,9.7,6.4,59,51,37,30.27,29.90,26,5,28,0.00
2013-2-19,48.0,40.4,28.0,45.7,34.9,14.2,96,81,53,30.28,29.68,16,2,18,0.41
2013-2-20,41.5,32.4,26.8,37.6,19.8,11.8,86,60,43,29.97,29.70,27,5,27,0.00
2013-2-21,35.2,29.0,23.7,20.3,16.5,13.6,71,60,47,30.29,29.93,26,6,27,0.00
2013-2-22,37.6,33.1,28.0,30.4,25.2,19.8,78,73,65,30.43,30.27,20,4,20,0.00
2013-2-23,41.2,38.6,36.0,38.5,35.4,29.8,96,88,77,30.34,29.82,17,4,17,0.14
2013-2-24,40.3,37.2,33.4,37.8,35.2,30.6,97,93,80,29.95,29.73,16,4,17,0.05
2013-2-25,44.4,37.8,33.3,33.3,30.2,27.7,90,75,55,30.28,29.95,12,2,13,0.00
2013-2-26,43.9,38.7,35.8,36.9,33.5,30.0,93,82,64,30.36,30.03,22,3,22,0.16
2013-2-27,47.7,43.8,38.7,46.6,42.3,36.3,97,94,85,30.03,29.56,38,7,38,1.67
2013-2-28,45.0,41.0,36.9,42.4,38.7,34.5,96,91,85,29.67,29.58,8,1,9,0.09
2013-3-1,45.3,40.0,36.0,37.4,33.4,29.8,94,78,55,29.77,29.60,17,3,17,0.01
2013-3-2,39.0,37.1,35.1,31.8,28.3,26.1,79,70,60,29.78,29.70,16,3,16,0.00
2013-3-3,36.9,33.5,31.3,28.2,25.4,22.3,81,72,59,29.74,29.67,18,4,18,0.00
2013-3-4,42.3,35.1,30.6,27.9,23.9,21.6,72,64,50,29.87,29.72,21,6,26,0.00
2013-3-5,45.1,38.2,32.7,33.4,28.2,24.3,87,68,52,30.09,29.87,18,3,21,0.00
2013-3-6,42.4,38.9,34.9,36.5,34.2,31.5,88,83,74,30.06,29.88,37,12,41,0.09
2013-3-7,39.7,36.2,33.4,33.4,31.9,30.2,95,85,72,30.04,29.88,39,14,39,0.34
2013-3-8,40.1,34.9,32.9,34.5,32.3,29.7,96,91,67,30.15,29.96,24,6,24,0.60
2013-3-9,50.0,40.3,32.7,34.9,29.7,25.0,88,67,38,30.38,30.15,20,5,21,0.02
2013-3-10,41.7,37.3,33.8,35.2,32.9,30.9,90,84,74,30.44,30.35,10,3,13,0.00
2013-3-11,47.1,41.7,33.6,43.5,39.1,31.8,96,91,85,30.39,30.18,11,2,12,0.00
2013-3-12,50.7,48.4,44.8,49.8,46.5,43.5,97,94,89,30.18,29.76,21,4,24,0.67
2013-3-13,50.2,43.5,37.8,45.5,32.0,25.3,93,66,40,29.90,29.81,17,4,17,0.00
2013-3-14,40.6,34.4,30.7,30.0,19.5,12.6,76,55,42,29.95,29.86,27,5,29,0.00
2013-3-15,43.5,37.1,30.4,31.1,20.2,11.3,69,50,31,29.99,29.76,19,4,20,0.00
2013-3-16,40.3,35.3,31.8,31.3,25.8,17.6,93,70,45,29.94,29.80,13,3,14,0.01
2013-3-17,37.6,34.4,31.6,31.1,20.1,12.6,91,58,37,30.35,29.94,19,4,21,0.02
2013-3-18,36.3,32.7,28.2,32.7,19.4,10.8,94,59,43,30.47,30.11,19,6,19,0.03
2013-3-19,41.5,38.2,34.5,39.9,36.4,32.9,96,93,88,30.12,29.65,29,6,29,0.92
2013-3-20,43.0,36.6,30.4,33.3,24.0,19.6,88,61,44,29.90,29.80,23,3,26,0.00
2013-3-21,37.8,34.5,28.9,29.5,27.0,23.4,91,74,56,29.87,29.67,16,4,16,0.00
2013-3-22,42.3,35.2,29.5,27.0,20.4,16.9,90,55,39,29.88,29.72,18,4,23,0.00
2013-3-23,45.7,39.0,31.3,25.5,22.8,20.1,68,53,38,29.93,29.79,23,5,25,0.00
2013-3-24,44.1,38.7,30.6,32.0,24.8,20.8,76,58,46,29.96,29.75,19,3,19,0.00
2013-3-25,41.9,38.5,34.7,34.0,31.4,28.8,93,76,63,29.79,29.47,27,7,28,0.16
2013-3-26,50.2,41.7,36.3,33.6,30.5,26.8,84,65,43,29.88,29.57,21,3,21,0.00
2013-3-27,53.4,43.5,35.1,30.4,27.0,22.6,72,54,32,29.95,29.86,16,3,17,0.00
2013-3-28,47.7,43.4,38.1,36.1,32.8,28.0,75,66,56,30.11,29.94,15,3,15,0.00
2013-3-29,56.7,47.0,41.0,35.4,32.5,27.3,72,58,35,30.15,30.06,12,3,14,0.00
2013-3-30,56.8,46.2,39.0,36.3,30.8,21.2,78,57,25,30.18,30.10,15,3,16,0.00
2013-3-31,52.9,44.3,35.1,45.1,38.8,33.3,96,82,62,30.19,29.67,20,2,20,0.15
2013-4-1,54.1,46.9,39.7,47.3,41.9,19.6,96,83,45,29.91,29.65,25,4,25,0.16
2013-4-2,43.0,37.5,31.1,22.3,16.9,11.7,61,44,29,30.10,29.91,25,4,26,0.00
2013-4-3,45.7,38.8,33.3,18.9,15.9,13.1,50,39,28,30.29,30.08,27,5,27,0.00
2013-4-4,45.9,38.9,29.3,34.7,24.6,16.5,79,57,42,30.43,30.16,17,4,17,0.00
2013-4-5,56.7,45.3,40.6,41.2,35.4,25.9,92,71,32,30.17,29.73,17,2,22,0.03
2013-4-6,48.0,40.6,36.9,31.3,21.6,8.2,79,48,20,30.37,29.98,20,5,21,0.00
2013-4-7,52.2,44.1,33.3,44.2,37.5,29.8,93,78,57,30.37,30.08,16,3,18,0.00
2013-4-8,62.6,52.1,46.6,46.6,44.9,42.8,91,78,54,30.12,30.02,17,2,17,0.00
2013-4-9,79.3,61.1,46.8,53.4,46.0,39.2,95,64,26,30.09,29.94,20,3,24,0.01
2013-4-10,62.1,51.4,48.0,51.4,46.5,44.4,93,84,64,30.09,29.84,19,4,25,0.15
2013-4-11,56.1,49.6,45.7,50.9,45.6,37.8,97,87,73,30.12,29.83,15,4,17,0.10
2013-4-12,45.9,42.9,40.3,41.7,38.5,34.0,95,85,68,30.12,29.75,29,8,30,1.00
2013-4-13,54.0,45.4,39.0,42.8,39.1,36.0,94,79,52,30.02,29.74,22,4,22,0.01
2013-4-14,58.5,50.3,44.6,43.7,36.0,27.1,91,60,35,30.27,30.01,19,4,21,0.00
2013-4-15,50.0,45.9,40.5,42.3,35.9,28.2,91,69,50,30.45,30.27,14,3,14,0.00
2013-4-16,55.8,49.8,44.2,49.5,45.7,41.5,92,86,74,30.45,30.19,19,4,19,0.00
2013-4-17,67.1,55.8,48.6,52.0,43.9,33.6,92,68,29,30.35,30.15,12,3,12,0.01
2013-4-18,56.3,50.6,43.5,49.1,41.4,34.5,93,72,45,30.43,30.17,16,3,19,0.00
2013-4-19,62.2,56.2,51.1,58.3,54.9,49.1,98,96,87,30.18,29.76,24,4,24,0.05
2013-4-20,58.6,52.5,46.2,58.1,43.4,30.0,98,74,39,30.28,29.71,18,3,23,0.41
2013-4-21,52.3,43.7,38.5,35.1,27.0,21.4,71,52,32,30.69,30.28,24,5,24,0.00
2013-4-22,50.9,44.8,37.8,38.3,34.3,28.8,84,67,44,30.71,30.55,27,6,27,0.00
2013-4-23,48.4,44.8,41.9,43.9,40.8,34.9,92,86,74,30.55,30.08,24,10,25,0.01
2013-4-24,60.1,49.3,44.2,48.2,44.2,40.6,97,83,59,30.09,29.95,21,5,23,0.00
2013-4-25,62.4,53.3,47.1,50.5,39.3,28.6,97,62,29,30.32,29.93,17,3,17,0.02
2013-4-26,60.6,51.5,42.6,47.8,41.3,35.6,89,69,43,30.44,30.32,10,2,10,0.00
2013-4-27,57.9,49.1,42.4,46.9,41.9,33.4,95,78,41,30.46,30.36,13,2,13,0.00
2013-4-28,59.2,50.2,40.8,48.2,42.8,33.6,97,78,39,30.39,30.29,12,2,13,0.00
2013-4-29,56.7,53.4,51.4,47.3,45.8,44.2,84,76,68,30.32,30.27,13,2,13,0.00
2013-4-30,61.3,53.9,44.4,45.9,39.5,33.3,84,60,37,30.39,30.27,14,2,14,0.00
2013-5-1,60.4,51.0,43.9,50.0,44.1,35.1,92,78,66,30.53,30.38,12,2,13,0.00
2013-5-2,63.1,53.5,43.5,49.5,45.2,41.9,97,75,53,30.51,30.38,16,2,16,0.00
2013-5-3,59.4,51.8,46.0,46.8,43.4,39.6,89,73,57,30.51,30.41,16,4,17,0.00
2013-5-4,57.9,50.4,43.9,47.7,43.7,39.6,95,78,63,30.41,30.32,15,3,15,0.00
2013-5-5,55.9,48.7,43.3,45.5,42.7,40.6,95,80,63,30.35,30.29,15,3,16,0.00
2013-5-6,56.1,49.8,42.3,49.8,45.7,39.9,94,86,74,30.33,30.21,11,2,12,0.00
2013-5-7,62.6,55.5,45.3,58.1,52.6,43.5,98,90,81,30.23,30.16,10,1,10,0.00
2013-5-8,64.6,58.9,54.7,62.2,56.8,53.6,97,93,87,30.18,30.06,20,2,20,0.14
2013-5-9,61.9,56.4,53.2,61.0,55.3,52.3,98,96,89,30.08,29.91,9,1,11,0.13
2013-5-10,73.8,61.4,51.1,59.4,55.3,50.0,98,82,51,30.03,29.97,11,2,13,0.01
2013-5-11,62.1,58.5,55.9,60.4,56.8,53.8,98,94,85,29.97,29.74,18,3,18,0.34
2013-5-12,69.1,60.7,54.0,57.9,49.3,33.3,98,71,33,29.93,29.68,15,2,18,0.03
2013-5-13,56.3,51.3,45.3,36.3,32.1,27.5,61,48,34,30.11,29.93,15,3,16,0.00
2013-5-14,59.2,51.2,45.9,43.9,35.0,26.2,83,56,30,30.14,30.06,16,3,16,0.00
2013-5-15,60.6,53.8,45.7,53.8,48.6,43.5,94,83,55,30.13,29.74,10,2,16,0.01
2013-5-16,73.0,62.9,53.4,58.8,53.0,47.8,96,73,42,29.85,29.73,8,2,15,0.00
2013-5-17,71.1,61.7,52.5,54.7,46.7,42.1,88,59,37,30.25,29.84,14,2,15,0.00
2013-5-18,68.2,58.7,50.9,54.3,50.9,47.5,90,76,58,30.36,30.25,9,1,10,0.00
2013-5-19,57.9,56.1,55.0,55.9,53.0,47.3,97,89,72,30.40,30.23,10,1,11,0.45
2013-5-20,72.5,62.9,56.7,65.8,60.7,55.6,98,93,75,30.23,30.01,10,1,12,0.02
2013-5-21,76.6,66.4,60.3,68.9,62.6,59.2,98,88,72,30.02,29.90,11,1,14,0.02
2013-5-22,72.5,61.6,54.3,65.3,59.2,53.2,97,92,74,30.01,29.91,11,2,14,0.00
2013-5-23,67.5,63.0,60.6,64.0,61.5,59.2,98,95,88,29.99,29.85,13,3,17,0.36
2013-5-24,68.4,59.3,49.8,64.9,57.6,46.9,99,94,84,29.89,29.72,22,3,24,0.21
2013-5-25,49.8,47.9,46.9,47.3,45.1,40.8,96,90,74,29.94,29.83,24,5,26,0.43
2013-5-26,62.4,54.3,46.0,43.9,42.0,39.9,86,64,45,30.22,29.91,21,4,22,0.00
2013-5-27,70.7,58.9,45.9,49.6,42.1,36.5,88,57,29,30.25,30.17,20,2,20,0.00
2013-5-28,67.1,57.3,48.4,56.5,52.3,46.4,97,84,53,30.27,30.19,12,1,12,0.30
2013-5-29,70.7,61.3,56.1,63.9,58.5,55.0,97,91,77,30.20,30.05,11,1,12,0.04
2013-5-30,84.6,72.7,59.2,71.1,64.2,57.0,95,76,57,30.15,30.09,14,1,14,0.00
2013-5-31,87.4,73.8,62.2,70.0,64.6,60.4,96,74,52,30.15,30.04,13,2,17,0.00
2013-6-1,78.6,70.0,64.2,67.8,63.9,60.6,91,81,68,30.06,29.97,11,2,14,0.00
2013-6-2,71.8,67.0,63.5,65.3,62.7,61.0,94,86,77,29.99,29.86,17,3,21,0.00
2013-6-3,68.4,64.1,61.3,66.6,62.7,59.7,98,95,91,29.91,29.83,11,1,12,0.31
2013-6-4,73.4,64.1,56.3,64.6,49.1,43.0,97,60,39,30.12,29.86,19,4,19,0.00
2013-6-5,68.4,62.3,55.9,54.7,51.1,46.0,89,68,49,30.25,30.12,9,2,10,0.00
2013-6-6,70.0,62.5,56.1,61.5,57.3,52.0,97,84,55,30.21,30.08,10,1,11,0.01
2013-6-7,66.6,60.3,58.5,66.0,58.6,54.7,98,94,81,30.08,29.68,18,2,19,3.52
2013-6-8,73.8,65.7,55.2,67.1,62.0,54.5,99,88,72,30.07,29.54,15,2,18,0.23
2013-6-9,77.9,68.6,60.3,63.1,60.3,58.1,96,76,53,30.21,30.06,8,1,9,0.00
2013-6-10,68.9,63.2,59.5,64.8,61.4,58.6,98,94,86,30.21,29.92,11,1,12,3.03
2013-6-11,77.9,68.7,63.7,70.5,66.0,61.3,99,91,74,29.92,29.63,12,2,15,0.30
2013-6-12,73.2,67.7,61.2,61.0,56.0,53.6,89,67,53,29.88,29.68,17,3,23,0.00
2013-6-13,63.7,59.6,55.4,59.9,56.3,52.5,96,89,79,29.86,29.52,23,2,24,0.66
2013-6-14,70.7,60.5,54.9,58.1,54.4,51.3,95,81,58,29.87,29.52,29,6,29,0.50
2013-6-15,78.4,67.9,60.4,60.3,56.2,48.6,91,69,36,30.01,29.87,14,2,14,0.00
2013-6-16,73.8,67.2,58.6,64.8,60.8,55.9,94,81,59,30.01,29.81,12,1,15,0.00
2013-6-17,81.0,72.2,63.9,68.7,65.4,62.1,96,80,62,29.96,29.86,13,1,13,0.00
2013-6-18,73.2,66.7,61.5,66.9,63.7,59.9,97,90,79,29.95,29.87,15,2,16,0.20
2013-6-19,76.5,65.8,59.9,60.4,56.5,46.2,94,74,36,30.20,29.88,17,4,18,0.00
2013-6-20,75.9,66.1,56.1,59.5,56.4,52.9,89,73,48,30.32,30.20,9,1,13,0.00
2013-6-21,75.7,68.1,60.4,62.4,58.4,55.2,90,72,52,30.34,30.29,9,2,13,0.00
2013-6-22,77.7,68.6,62.2,64.9,62.2,55.0,95,81,50,30.31,30.19,13,1,13,0.00
2013-6-23,79.9,71.9,64.2,70.9,66.7,61.9,95,85,68,30.23,30.12,13,2,13,0.00
2013-6-24,89.1,78.1,70.0,76.6,71.2,64.6,97,81,62,30.13,29.98,11,1,15,0.01
2013-6-25,87.1,76.9,65.8,73.6,69.0,63.1,93,77,61,30.02,29.82,10,1,11,0.00
2013-6-26,84.9,77.4,71.4,72.1,69.4,66.2,92,77,62,29.87,29.79,11,1,12,0.00
2013-6-27,77.7,72.0,68.5,71.6,69.3,67.3,97,91,79,29.86,29.68,7,1,15,0.28
2013-6-28,77.4,72.5,69.8,72.9,70.8,68.9,98,94,85,29.68,29.55,15,2,15,0.02
2013-6-29,78.4,72.8,69.6,72.3,70.2,68.7,98,92,81,29.76,29.53,18,2,18,0.01
2013-6-30,75.2,71.7,70.0,71.8,69.8,66.9,98,94,80,29.99,29.76,13,1,13,0.04
2013-7-1,77.0,72.6,70.0,73.4,71.3,69.4,99,96,88,30.13,29.98,9,1,16,0.01
2013-7-2,78.3,73.4,71.1,73.9,71.6,69.8,97,94,85,30.24,30.12,10,1,14,0.01
2013-7-3,79.7,74.6,71.1,74.5,72.0,69.3,97,92,82,30.30,30.22,11,2,12,0.00
2013-7-4,84.7,77.2,72.3,76.3,73.1,70.9,97,88,74,30.29,30.21,12,2,15,0.00
2013-7-5,84.7,78.1,71.8,75.9,72.7,69.6,95,84,73,30.25,30.13,11,2,13,0.00
2013-7-6,91.2,81.1,74.5,77.9,74.1,71.2,93,80,63,30.16,30.05,9,1,12,0.00
2013-7-7,87.4,80.7,74.7,77.4,73.8,71.4,92,80,67,30.08,29.96,11,1,11,0.00
2013-7-8,86.5,78.6,72.1,74.5,71.0,67.3,89,78,61,30.07,29.97,7,1,11,0.00
2013-7-9,84.9,76.8,71.2,75.0,71.6,68.2,95,84,68,30.11,30.04,9,1,11,0.00
2013-7-10,79.9,75.7,72.5,74.8,72.6,71.2,96,91,82,30.06,29.86,13,1,15,0.02
2013-7-11,79.5,74.7,71.2,75.2,72.2,69.4,97,92,83,29.94,29.84,11,1,11,0.04
2013-7-12,76.3,72.7,68.5,71.4,68.2,65.7,97,86,78,30.17,29.94,19,4,19,0.02
2013-7-13,79.9,73.2,68.0,75.7,71.6,66.6,98,95,82,30.32,30.16,11,1,13,0.29
2013-7-14,87.8,79.1,72.1,77.4,74.2,71.6,99,86,69,30.35,30.26,10,1,10,0.01
2013-7-15,92.5,81.9,72.9,76.6,73.0,70.2,96,76,53,30.26,30.14,9,1,13,0.00
2013-7-16,91.9,82.6,74.5,74.3,71.3,68.9,87,70,49,30.19,30.14,8,1,9,0.00
2013-7-17,84.9,79.5,73.9,75.9,73.5,69.6,94,82,67,30.21,30.09,8,1,10,0.00
2013-7-18,93.6,84.3,77.0,77.5,74.7,71.1,89,74,58,30.09,29.99,7,1,9,0.00
2013-7-19,91.0,83.0,77.5,80.4,76.4,73.8,93,81,69,30.00,29.83,16,2,19,0.00
2013-7-20,87.6,81.4,76.3,77.5,74.2,69.4,91,79,66,29.86,29.74,15,2,17,0.00
2013-7-21,82.8,77.3,73.2,72.0,68.2,63.0,93,75,53,30.00,29.86,12,1,13,0.00
2013-7-22,82.8,76.1,72.5,75.9,73.0,70.5,96,91,75,30.00,29.86,8,0,9,0.01
2013-7-23,83.8,77.5,69.4,76.8,74.0,67.8,98,90,72,29.86,29.60,13,1,13,0.24
2013-7-24,84.6,76.5,68.4,75.2,69.8,61.2,98,81,64,29.93,29.62,13,2,16,0.01
2013-7-25,72.9,65.7,62.8,62.6,60.4,57.2,94,83,67,30.08,29.93,19,6,19,0.26
2013-7-26,71.6,66.6,62.8,66.7,63.5,60.4,96,90,80,30.09,29.97,20,4,21,0.21
2013-7-27,79.5,72.7,67.3,70.3,68.1,65.8,97,86,68,30.11,30.00,10,1,10,0.00
2013-7-28,79.5,73.9,70.0,70.7,69.3,66.0,95,86,67,30.04,29.97,8,1,9,0.00
2013-7-29,82.8,75.6,69.1,75.0,70.6,64.0,98,85,63,30.11,29.98,9,1,13,0.01
2013-7-30,80.2,72.7,65.1,64.0,59.6,57.0,84,64,47,30.17,30.10,10,2,12,0.00
2013-7-31,79.2,71.2,63.5,65.3,62.2,59.5,92,74,52,30.19,30.09,8,1,9,0.00
2013-8-1,77.4,70.1,66.4,69.8,66.4,62.8,97,89,71,30.09,29.88,11,1,12,0.11
2013-8-2,82.9,73.7,68.0,69.1,67.1,60.4,98,82,49,29.94,29.82,9,1,14,0.07
2013-8-3,77.4,71.4,68.7,69.1,66.3,63.5,91,84,70,29.95,29.88,9,1,10,0.02
2013-8-4,80.1,72.7,66.9,66.0,60.1,55.6,93,66,47,29.96,29.86,14,2,14,0.00
2013-8-5,76.5,68.8,63.3,58.8,54.2,47.8,81,61,39,30.09,29.96,12,2,15,0.00
2013-8-6,76.1,69.0,60.8,65.3,61.0,58.1,96,77,56,30.18,30.08,10,1,11,0.00
2013-8-7,75.7,69.3,61.3,66.9,63.4,59.4,97,82,64,30.21,30.14,15,1,15,0.00
2013-8-8,78.6,73.3,69.3,72.0,69.6,66.7,96,88,77,30.15,30.07,13,2,16,0.07
2013-8-9,77.2,74.1,72.5,74.5,72.1,70.7,97,94,90,30.09,29.84,13,2,15,0.05
2013-8-10,82.9,76.3,71.2,72.5,66.2,60.4,96,73,49,30.07,29.86,14,2,14,0.00
2013-8-11,77.5,71.4,66.0,64.0,58.1,52.7,81,63,47,30.14,30.06,10,2,13,0.00
2013-8-12,76.1,70.9,66.7,70.5,67.8,63.5,97,90,77,30.09,29.97,6,0,6,0.41
2013-8-13,72.7,69.1,65.8,72.0,68.1,64.8,99,97,90,29.98,29.71,11,1,11,0.76
2013-8-14,74.1,68.9,64.6,67.5,57.9,53.1,98,69,50,30.05,29.74,15,3,18,0.01
2013-8-15,75.7,68.2,63.3,58.6,55.0,47.1,82,64,38,30.18,30.05,11,2,13,0.00
2013-8-16,78.3,69.3,62.4,63.1,59.3,51.1,91,72,41,30.24,30.15,7,1,8,0.00
2013-8-17,80.4,68.9,59.4,64.4,60.0,53.4,96,76,43,30.31,30.24,7,1,8,0.00
2013-8-18,75.7,66.7,59.7,64.4,60.1,54.3,97,81,56,30.30,30.15,9,0,10,0.03
2013-8-19,78.8,69.2,58.6,68.4,62.8,56.8,96,81,60,30.15,30.04,8,1,9,0.00
2013-8-20,84.6,73.4,64.0,67.8,64.1,57.6,95,75,43,30.16,30.06,10,1,10,0.00
2013-8-21,85.6,75.1,65.7,71.6,67.9,62.2,98,80,49,30.20,30.09,9,1,9,0.00
2013-8-22,78.6,72.8,70.3,73.0,70.2,67.6,96,92,81,30.10,29.90,9,1,10,0.08
2013-8-23,79.0,72.5,63.3,69.8,64.9,59.0,97,79,51,30.14,29.88,13,2,14,0.00
2013-8-24,75.9,67.1,57.7,62.8,58.0,54.1,96,74,50,30.39,30.14,14,3,16,0.00
2013-8-25,78.8,68.3,57.0,65.1,59.8,55.2,97,76,48,30.42,30.26,10,1,10,0.00
2013-8-26,76.1,70.9,68.5,68.9,64.6,58.5,96,81,70,30.27,29.95,13,2,13,0.16
2013-8-27,79.3,72.0,68.5,72.3,69.3,67.3,98,92,76,29.96,29.84,17,2,17,0.36
2013-8-28,80.4,72.2,66.2,72.5,69.5,65.3,98,92,75,29.93,29.88,9,1,10,0.00
2013-8-29,74.7,69.3,65.3,69.8,65.9,61.0,98,89,78,30.08,29.92,12,3,14,0.01
2013-8-30,77.5,69.5,62.2,70.3,65.3,59.2,95,87,77,30.06,29.90,9,1,11,0.00
2013-8-31,77.5,73.4,71.1,72.5,70.5,69.1,95,91,84,29.91,29.85,14,2,14,0.00
2013-9-1,79.0,74.3,71.8,74.5,71.9,70.2,97,93,86,29.91,29.86,10,1,11,0.00
2013-9-2,77.0,73.5,70.7,74.7,72.2,69.8,98,96,91,29.88,29.75,6,1,8,0.04
2013-9-3,73.8,70.5,66.9,73.4,68.9,61.0,99,95,74,29.89,29.74,20,1,25,4.24
2013-9-4,78.4,69.3,59.4,64.2,61.1,57.4,96,77,50,30.01,29.88,13,1,13,0.00
2013-9-5,74.5,69.4,65.5,64.0,58.1,48.2,90,69,46,30.16,29.94,17,3,17,0.00
2013-9-6,69.3,62.6,55.9,52.9,48.9,44.4,83,62,46,30.28,30.16,15,3,17,0.00
2013-9-7,72.7,64.3,54.3,61.0,53.2,46.9,87,68,43,30.16,29.94,11,1,11,0.00
2013-9-8,77.7,70.6,64.0,65.3,59.5,46.2,89,69,50,30.11,29.83,17,3,19,0.00
2013-9-9,68.0,61.6,51.1,57.2,49.5,44.1,85,65,45,30.28,30.11,14,1,18,0.00
2013-9-10,74.5,69.3,63.9,69.8,65.3,56.8,95,87,77,30.22,30.08,11,2,17,0.09
2013-9-11,83.3,75.7,71.2,75.2,71.4,69.4,95,87,75,30.15,30.03,11,2,11,0.00
2013-9-12,78.1,72.8,69.4,73.0,70.4,67.8,97,92,85,30.04,29.73,14,2,14,0.82
2013-9-13,75.9,69.7,63.3,69.8,65.4,56.3,99,87,69,29.82,29.64,14,2,15,0.03
2013-9-14,66.9,61.9,57.4,56.8,53.5,50.4,84,74,60,30.12,29.82,11,3,14,0.00
2013-9-15,67.6,60.7,53.6,57.4,52.4,49.1,91,75,59,30.23,30.12,10,1,10,0.00
2013-9-16,68.0,63.2,58.6,61.3,56.6,42.4,95,80,57,30.25,30.08,21,2,24,0.01
2013-9-17,61.2,53.5,46.0,47.1,42.9,40.1,88,68,50,30.45,30.25,24,5,25,0.00
2013-9-18,68.2,56.6,45.0,52.9,47.5,40.3,88,73,50,30.38,30.22,8,1,8,0.00
2013-9-19,72.1,62.0,52.3,58.1,54.3,49.3,92,77,52,30.23,30.12,9,1,9,0.00
2013-9-20,74.1,63.8,54.3,63.1,58.7,52.9,98,85,58,30.14,30.06,8,1,9,0.01
2013-9-21,75.2,66.2,57.6,68.5,63.7,56.7,99,92,79,30.07,29.75,13,1,13,0.01
2013-9-22,70.5,65.7,57.7,68.0,58.5,45.1,98,79,57,29.91,29.68,19,3,23,0.70
2013-9-23,62.6,57.7,53.1,47.8,46.2,44.1,76,66,57,30.05,29.90,19,4,20,0.00
2013-9-24,67.1,58.8,50.5,52.7,47.1,42.8,80,66,52,30.07,29.88,16,3,18,0.00
2013-9-25,70.0,59.9,49.5,56.8,50.9,46.4,93,74,46,29.98,29.91,10,1,10,0.00
2013-9-26,64.8,59.8,50.7,57.6,53.6,49.6,96,81,63,30.14,29.97,9,1,10,0.00
2013-9-27,64.2,59.2,50.0,56.8,53.3,48.9,97,81,65,30.30,30.13,12,3,13,0.00
2013-9-28,71.1,61.3,53.6,58.3,55.5,51.8,96,82,62,30.35,30.27,11,2,12,0.00
2013-9-29,66.0,57.5,50.2,56.8,52.2,45.9,98,84,50,30.28,30.12,12,1,12,0.01
2013-9-30,66.7,61.3,57.7,59.4,57.3,54.5,95,87,69,30.12,30.01,11,2,11,0.00
2013-10-1,77.2,64.5,55.8,63.7,58.0,54.0,96,81,52,30.02,29.92,7,1,9,0.01
2013-10-2,79.2,68.6,60.4,66.4,61.6,57.9,96,80,57,30.03,29.92,9,1,11,0.00
2013-10-3,74.3,66.9,59.5,61.5,56.8,51.4,92,71,48,30.14,30.02,7,1,8,0.00
2013-10-4,79.0,68.0,61.2,69.3,63.3,57.0,97,86,71,30.11,30.02,8,0,8,0.00
2013-10-5,69.4,64.4,62.4,63.9,61.9,60.6,97,92,81,30.14,30.06,9,1,9,0.00
2013-10-6,66.9,63.5,62.4,66.4,62.4,61.3,98,96,92,30.19,30.10,10,1,11,0.14
2013-10-7,73.9,68.7,64.0,69.4,66.4,54.9,99,93,72,30.10,29.89,17,2,17,0.01
2013-10-8,64.9,62.2,58.6,55.0,48.7,44.4,79,62,50,30.36,29.97,18,5,19,0.01
2013-10-9,62.4,58.6,56.3,51.4,49.3,44.2,82,72,57,30.44,30.33,19,4,20,0.00
2013-10-10,64.2,60.1,56.3,59.2,55.7,50.5,89,85,79,30.33,30.13,18,5,18,0.00
2013-10-11,66.7,63.1,60.3,60.4,58.5,50.2,92,85,68,30.13,30.06,16,5,19,0.00
2013-10-12,68.5,61.9,57.9,57.2,53.0,45.7,86,73,58,30.34,30.12,23,6,23,0.00
2013-10-13,60.6,57.2,53.1,53.2,51.1,47.1,87,80,71,30.43,30.31,15,3,16,0.00
2013-10-14,60.6,52.8,45.5,52.5,48.1,43.9,96,84,70,30.42,30.30,9,1,9,0.00
2013-10-15,68.0,55.7,47.1,57.0,49.8,35.1,98,83,32,30.31,30.19,8,1,8,0.01
2013-10-16,63.3,59.9,57.4,59.5,56.3,51.8,96,88,81,30.19,29.96,10,2,12,0.00
2013-10-17,69.4,62.6,57.7,63.5,60.4,56.7,97,93,81,29.96,29.77,8,1,10,0.00
2013-10-18,66.4,61.2,52.7,63.1,52.6,45.1,96,74,53,30.00,29.70,18,2,19,0.01
2013-10-19,65.3,56.5,48.2,57.2,49.3,44.6,95,78,51,30.04,29.79,7,0,9,0.01
2013-10-20,60.8,55.2,48.7,59.0,45.3,38.7,95,71,47,30.09,29.76,16,2,16,0.03
2013-10-21,64.6,55.4,46.0,49.6,43.8,38.8,79,66,45,30.19,30.04,8,1,10,0.00
2013-10-22,66.7,58.8,51.4,55.2,51.4,45.5,91,77,56,30.04,29.77,12,1,13,0.00
2013-10-23,54.7,50.2,45.1,46.9,39.7,35.1,88,68,53,29.85,29.65,12,3,14,0.05
2013-10-24,53.4,46.7,39.7,41.9,34.9,29.8,90,66,41,30.01,29.75,16,2,18,0.01
2013-10-25,50.9,44.9,37.0,38.5,33.6,30.2,86,65,51,30.25,30.00,15,2,19,0.00
2013-10-26,55.4,48.5,38.1,42.3,36.7,33.1,86,65,49,30.25,29.96,16,2,19,0.00
2013-10-27,56.8,50.5,43.2,38.7,36.0,33.1,70,58,44,30.14,29.90,18,2,18,0.00
2013-10-28,59.7,50.1,38.5,42.6,37.2,32.7,82,62,44,30.36,30.14,11,1,13,0.00
2013-10-29,52.2,46.0,37.8,41.0,35.2,32.2,83,66,49,30.46,30.35,15,2,16,0.00
2013-10-30,59.2,50.1,37.9,52.7,44.8,33.3,95,82,68,30.41,30.24,7,0,7,0.00
2013-10-31,65.7,58.9,50.9,61.0,56.4,49.5,97,92,83,30.28,29.88,17,1,17,0.01
2013-11-1,66.6,62.9,60.4,63.0,59.9,57.4,95,90,84,29.89,29.60,20,3,22,0.04
2013-11-2,64.0,58.3,51.3,58.8,52.0,45.5,96,80,59,29.79,29.65,9,1,9,0.01
2013-11-3,56.1,48.2,39.4,47.7,37.8,25.2,82,68,53,30.45,29.79,20,5,21,0.00
2013-11-4,44.2,39.0,34.0,32.7,26.8,23.2,79,62,47,30.72,30.45,20,5,22,0.00
2013-11-5,53.1,45.1,40.5,41.0,36.6,30.0,90,73,56,30.73,30.56,8,1,10,0.00
2013-11-6,60.3,51.8,41.2,56.3,47.9,39.6,98,87,67,30.57,30.13,11,1,11,0.00
2013-11-7,61.9,56.6,46.2,61.2,53.6,36.0,98,90,67,30.13,29.76,17,3,18,0.30
2013-11-8,49.6,44.8,38.5,35.8,32.1,28.4,80,61,46,30.22,29.94,19,3,21,0.00
2013-11-9,51.1,44.6,34.9,40.6,31.8,27.7,80,61,45,30.32,30.07,10,1,11,0.00
2013-11-10,61.0,52.2,47.5,42.8,38.1,31.6,74,59,34,30.07,29.80,23,3,26,0.00
2013-11-11,53.4,49.4,44.2,42.3,34.5,29.3,66,56,41,30.21,29.99,16,3,27,0.00
2013-11-12,52.2,39.8,32.5,40.5,29.5,21.6,93,67,55,30.29,29.95,23,5,24,0.13
2013-11-13,37.6,33.1,29.8,23.2,20.4,16.2,69,59,47,30.38,30.27,19,4,22,0.00
2013-11-14,48.7,42.2,31.5,31.6,24.0,18.7,66,49,34,30.31,30.17,15,3,16,0.00
2013-11-15,55.4,49.1,44.1,44.4,38.9,28.0,90,69,50,30.29,30.22,10,2,12,0.00
2013-11-16,58.1,49.9,43.9,47.3,41.9,32.7,97,75,54,30.37,30.27,10,1,11,0.00
2013-11-17,59.5,54.4,45.0,59.0,53.3,43.9,98,96,90,30.34,29.89,12,1,13,0.04
2013-11-18,63.7,58.6,52.2,60.3,48.7,32.5,99,73,42,29.89,29.65,18,3,21,0.14
2013-11-19,52.2,44.4,36.7,35.4,29.2,25.0,66,55,45,30.37,29.77,21,6,25,0.03
2013-11-20,41.0,36.9,33.3,27.3,22.9,19.8,66,57,43,30.66,30.37,18,5,20,0.03
2013-11-21,49.5,42.2,35.1,44.8,34.8,27.0,85,75,63,30.67,30.43,9,1,10,0.01
2013-11-22,54.0,51.3,47.5,52.5,48.5,43.3,96,90,81,30.44,29.91,10,1,17,0.09
2013-11-23,52.9,44.1,33.4,50.2,32.2,15.6,93,64,45,30.02,29.90,21,4,24,0.00
2013-11-24,33.6,27.8,25.5,18.3,10.3,4.8,60,47,36,30.35,29.94,31,7,31,0.00
2013-11-25,35.6,29.1,24.1,24.6,16.3,10.9,67,59,47,30.51,30.35,16,2,18,0.00
2013-11-26,52.3,41.1,35.8,51.4,30.9,21.7,97,69,50,30.39,29.93,15,2,19,0.32
2013-11-27,61.9,50.9,37.9,61.0,48.9,30.9,98,93,76,29.93,29.26,30,6,31,0.78
2013-11-28,37.8,32.6,27.9,31.3,19.9,14.5,77,59,49,30.51,29.68,26,4,28,0.15
2013-11-29,37.0,33.3,29.5,26.6,20.0,15.4,76,58,53,30.77,30.51,16,3,16,0.01
2013-11-30,42.6,33.0,27.9,35.4,22.4,14.9,77,65,51,30.81,30.44,15,4,17,0.01
2013-12-1,49.8,45.3,38.5,47.3,42.1,35.4,97,89,75,30.44,30.05,14,2,14,0.05
2013-12-2,43.3,39.3,36.9,41.4,38.3,35.8,98,96,90,30.05,29.93,7,1,7,0.00
2013-12-3,47.5,41.5,37.0,40.3,37.9,35.2,98,87,71,30.04,29.91,9,2,9,0.01
2013-12-4,50.2,42.7,35.2,48.0,37.8,32.0,93,83,67,30.20,30.04,6,1,6,0.00
2013-12-5,58.6,54.4,49.6,56.5,52.7,47.1,97,94,90,30.20,29.99,11,2,12,0.00
2013-12-6,58.6,48.2,38.8,58.1,46.6,37.2,98,94,86,30.16,29.94,19,4,22,0.16
2013-12-7,40.3,37.9,34.0,37.8,31.0,21.7,95,77,59,30.54,30.09,18,5,21,0.07
2013-12-8,34.0,32.9,31.8,31.5,24.6,22.1,93,72,63,30.64,30.44,18,4,20,0.11
2013-12-9,48.9,40.5,33.3,47.8,39.5,31.5,98,96,93,30.45,29.93,15,4,17,0.35
2013-12-10,38.8,34.0,29.5,35.1,31.5,23.2,96,91,75,30.14,29.86,16,2,16,0.10
2013-12-11,35.2,30.3,26.2,23.2,19.1,16.9,77,63,51,30.35,30.14,15,3,17,0.01
2013-12-12,29.5,25.6,21.2,20.1,13.8,7.9,71,60,51,30.37,30.19,15,2,16,0.00
2013-12-13,35.4,28.8,21.6,23.5,13.9,7.3,74,54,46,30.39,30.14,21,3,22,0.01
2013-12-14,42.4,28.4,22.5,41.2,24.1,15.6,96,84,63,30.58,29.94,23,7,26,0.60
2013-12-15,53.8,38.5,32.2,53.1,34.9,25.3,98,87,69,29.95,29.46,26,4,29,1.13
2013-12-16,33.8,28.9,21.7,25.5,16.3,10.9,74,59,47,30.27,29.85,19,3,20,0.00
2013-12-17,43.9,28.7,21.7,42.8,24.3,11.3,97,84,58,30.29,29.92,22,4,22,0.31
2013-12-18,35.1,30.5,24.4,26.4,24.0,21.9,91,77,65,30.21,29.91,16,4,18,0.00
2013-12-19,46.9,38.8,28.6,36.1,28.7,21.6,78,67,52,30.22,30.07,19,2,21,0.00
2013-12-20,51.8,46.6,39.6,47.3,40.2,31.5,93,79,58,30.17,30.03,12,2,15,0.00
2013-12-21,56.7,52.5,48.4,53.6,49.3,46.4,94,89,79,30.07,29.96,17,4,20,0.00
2013-12-22,60.4,56.2,53.8,56.5,54.2,51.4,98,93,83,30.04,29.88,18,5,21,0.00
2013-12-23,57.7,51.0,40.8,55.9,49.6,37.6,98,95,88,30.15,29.92,14,2,18,0.52
2013-12-24,40.8,36.2,30.9,37.6,26.0,17.8,88,67,54,30.31,30.09,22,6,22,0.03
2013-12-25,30.9,25.5,23.0,23.5,13.6,9.9,77,60,52,30.58,30.31,21,3,22,0.00
2013-12-26,38.8,34.5,29.7,35.4,28.7,23.7,90,79,69,30.48,30.17,10,1,12,0.00
2013-12-27,41.0,33.4,28.6,25.7,23.7,18.7,85,68,43,30.38,30.29,11,2,18,0.00
2013-12-28,49.6,41.9,30.9,39.2,33.6,24.3,87,73,54,30.33,30.10,15,2,21,0.00
2013-12-29,55.0,45.5,41.2,54.5,41.8,34.9,98,87,69,30.11,29.37,20,3,21,1.25
2013-12-30,44.8,36.7,23.2,39.9,30.1,11.8,95,78,56,30.22,29.66,20,4,23,0.00
2013-12-31,30.9,25.7,20.5,21.9,15.0,9.7,74,64,51,30.29,30.11,17,3,17,0.00
2014-1-1,31.8,27.8,22.5,23.2,16.0,11.1,72,61,51,30.47,30.29,13,2,14,0.00
2014-1-2,32.7,29.9,18.0,31.3,26.8,16.0,95,89,68,30.33,29.70,30,9,30,0.00